W9KOZ-7 Weather Reports


time (UTC)temp
C
wind
direction
speed
KPH
gust
KPH
rain 1hr
cm
rain 24hr
cm
rain mn
cm
humidity
%
barometer
mb
20260505165619 -1 147 8.0 16.1 0.00 0.00 0.00 93 1015.0
20260505164619 0 183 6.4 12.9 0.00 0.00 0.00 93 1015.0
20260505163619 0 168 6.4 12.9 0.00 0.00 0.00 93 1015.0
20260505162619 0 189 6.4 14.5 0.00 0.00 0.00 93 1015.2
20260505161619 0 135 6.4 14.5 0.00 0.00 0.00 93 1015.2
20260505161057 0 176 6.4 14.5 0.00 0.00 0.00 93 1015.3
20260505152620 0 127 4.8 11.3 0.00 0.00 0.00 92 1015.3
20260505151619 0 150 4.8 11.3 0.00 0.00 0.00 92 1015.3
20260505150617 0 227 4.8 9.7 0.00 0.00 0.00 92 1015.3
20260505140618 0 147 3.2 11.3 0.00 0.00 0.00 91 1015.3
20260505124611 2 145 6.4 12.9 0.00 0.00 0.00 83 1014.8
20260505123609 2 129 6.4 16.1 0.00 0.00 0.00 82 1014.8
20260505122610 1 122 4.8 12.9 0.00 0.00 0.00 82 1014.6
20260505121603 1 141 6.4 16.1 0.00 0.00 0.00 82 1014.4
20260505120603 2 154 6.4 16.1 0.00 0.00 0.00 82 1014.3
20260505115602 2 145 6.4 16.1 0.00 0.00 0.00 82 1014.1
20260505114603 2 133 4.8 12.9 0.00 0.00 0.00 82 1014.1
20260505113605 2 197 6.4 12.9 0.00 0.00 0.00 82 1014.1
20260505112604 2 147 6.4 14.5 0.00 0.00 0.00 83 1014.1
20260505111603 2 156 6.4 14.5 0.00 0.00 0.00 84 1014.1
20260505110603 2 147 4.8 9.7 0.00 0.00 0.00 85 1014.4
20260505101604 3 174 4.8 11.3 0.00 0.00 0.00 88 1014.5
20260505100604 2 126 4.8 9.7 0.00 0.00 0.00 89 1014.8
20260505095604 3 125 6.4 12.9 0.00 0.00 0.00 89 1014.8
20260505094603 3 165 4.8 14.5 0.00 0.00 0.00 87 1014.5
20260505094040 3 139 3.2 9.7 0.00 0.00 0.00 88 1014.9
20260505093505 3 147 1.6 8.0 0.00 0.00 0.00 88 1014.8
20260505091601 3 142 1.6 6.4 0.00 0.00 0.00 88 1014.8
20260505091035 3 222 0.0 0.0 0.00 0.00 0.00 89 1014.9
20260505085600 3 222 0.0 0.0 0.00 0.00 0.00 89 1014.9
20260505084600 3 223 1.6 3.2 0.00 0.00 0.00 89 1014.8
20260505083601 3 243 1.6 6.4 0.00 0.00 0.00 89 1014.9
20260505082601 3 197 0.0 3.2 0.00 0.00 0.00 87 1015.0
20260505081559 3 252 0.0 0.0 0.00 0.00 0.00 88 1015.2
20260505080609 3 251 0.0 0.0 0.00 0.00 0.00 88 1015.2
20260505080106 3 251 0.0 0.0 0.00 0.00 0.00 88 1015.3
20260505074604 3 250 0.0 0.0 0.00 0.00 0.00 88 1015.4
20260505074047 3 251 0.0 0.0 0.00 0.00 0.00 88 1015.6
20260505072602 3 251 0.0 0.0 0.00 0.00 0.00 88 1015.6
20260505071600 3 251 0.0 0.0 0.00 0.00 0.00 88 1015.7
20260505070556 3 251 0.0 0.0 0.00 0.00 0.00 87 1015.6
20260505065555 3 251 0.0 1.6 0.00 0.00 0.00 86 1015.4
20260505064554 3 251 0.0 1.6 0.00 0.00 0.00 86 1015.6
20260505063552 3 251 0.0 0.0 0.00 0.00 0.00 86 1015.4
20260505062552 3 251 0.0 3.2 0.00 0.00 0.00 86 1015.8
20260505061552 3 251 1.6 4.8 0.00 0.00 0.00 86 1015.7
20260505060550 3 272 1.6 6.4 0.00 0.00 0.00 84 1016.1
20260505055549 3 284 1.6 6.4 0.00 0.00 0.00 82 1016.1
20260505054549 4 316 3.2 9.7 0.00 0.00 0.00 80 1016.1
20260505053549 4 259 3.2 9.7 0.00 0.00 0.00 78 1016.1
20260505052549 4 262 1.6 6.4 0.00 0.00 0.00 76 1016.1
20260505051547 4 274 0.0 0.0 0.00 0.00 0.00 76 1015.8
20260505050548 4 272 0.0 0.0 0.00 0.00 0.00 76 1015.7
20260505041038 5 209 0.0 1.6 0.00 0.00 0.00 74 1015.6
20260505035540 5 209 1.6 4.8 0.00 0.00 0.00 73 1015.6
20260505034540 5 197 3.2 8.0 0.00 0.00 0.00 73 1015.2
20260505033544 5 162 3.2 9.7 0.00 0.00 0.00 72 1015.2
20260505032540 5 154 1.6 4.8 0.00 0.00 0.00 72 1014.9
20260505031540 5 149 1.6 3.2 0.00 0.00 0.00 71 1014.6
20260505030540 5 130 1.6 6.4 0.00 0.00 0.00 71 1014.8
20260505025543 5 112 3.2 8.0 0.00 0.00 0.00 70 1014.5
20260505024541 5 227 3.2 8.0 0.00 0.00 0.00 69 1014.6
20260505023541 6 198 4.8 14.5 0.00 0.00 0.00 67 1014.6
20260505023033 6 197 4.8 12.9 0.00 0.00 0.00 67 1014.8
20260505021541 6 145 3.2 8.0 0.00 0.00 0.00 67 1014.5
20260505020540 6 152 4.8 14.5 0.00 0.00 0.00 67 1014.5
20260505015541 6 163 4.8 14.5 0.00 0.00 0.00 67 1014.6
20260505014540 6 171 4.8 11.3 0.00 0.00 0.00 67 1014.9
20260505014022 6 156 4.8 14.5 0.00 0.00 0.00 67 1014.4
20260505012535 6 228 8.0 20.9 0.00 0.00 0.00 66 1014.5
20260505011536 7 102 8.0 20.9 0.00 0.00 0.00 61 1014.5
20260505011020 8 192 6.4 16.1 0.00 0.00 0.00 56 1014.1
20260505005535 9 166 4.8 12.9 0.00 0.00 0.00 54 1014.0
20260505004534 9 210 1.6 11.3 0.00 0.00 0.00 57 1014.3
20260505003534 8 175 0.0 4.8 0.00 0.00 0.00 62 1013.9
20260505002534 8 241 0.0 4.8 0.00 0.00 0.00 63 1014.0
20260505001532 8 276 1.6 4.8 0.00 0.00 0.00 62 1013.9
20260505000534 10 142 1.6 8.0 0.00 0.00 0.00 59 1014.1
20260504235533 11 168 3.2 16.1 0.00 0.00 0.00 53 1014.5
20260504234532 11 172 3.2 8.0 0.00 0.00 0.00 44 1013.9
20260504234022 12 270 3.2 14.5 0.00 0.00 0.00 42 1013.5
20260504232533 12 134 3.2 11.3 0.00 0.00 0.00 39 1013.4
20260504231532 13 192 3.2 12.9 0.00 0.00 0.00 37 1013.1
20260504231015 13 166 3.2 14.5 0.00 0.00 0.00 38 1013.1
20260504225532 13 325 4.8 12.9 0.00 0.00 0.00 41 1013.1
20260504224531 13 354 3.2 12.9 0.00 0.00 0.00 41 1013.4
20260504223530 12 39 1.6 8.0 0.00 0.00 0.00 42 1013.5
20260504222530 12 107 4.8 11.3 0.00 0.00 0.00 42 1013.5
20260504221530 12 178 1.6 6.4 0.00 0.00 0.00 40 1013.6
20260504220530 13 173 3.2 8.0 0.00 0.00 0.00 38 1013.5
20260504215530 14 232 4.8 17.7 0.00 0.00 0.00 37 1013.9
20260504214530 15 22 4.8 17.7 0.00 0.00 0.00 35 1013.6
20260504213530 16 145 3.2 12.9 0.00 0.00 0.00 29 1013.5
20260504212530 15 210 4.8 14.5 0.00 0.00 0.00 31 1013.4
20260504211530 16 186 3.2 12.9 0.00 0.00 0.00 29 1013.4
20260504210530 16 255 6.4 17.7 0.00 0.00 0.00 30 1013.7
20260504205531 16 332 4.8 27.4 0.00 0.00 0.00 29 1013.7
20260504204530 16 199 4.8 16.1 0.00 0.00 0.00 30 1014.0
20260504203530 16 154 6.4 20.9 0.00 0.00 0.00 29 1014.0
20260504202530 17 125 4.8 12.9 0.00 0.00 0.00 29 1014.1
20260504201530 16 322 4.8 14.5 0.00 0.00 0.00 32 1014.3
20260504200530 15 214 4.8 12.9 0.00 0.00 0.00 33 1014.1
20260504195530 14 152 4.8 17.7 0.00 0.00 0.00 32 1014.4
20260504194530 14 239 4.8 11.3 0.00 0.00 0.00 32 1014.6
20260504194450 13 252 3.2 11.3 0.00 0.00 0.00 34 1015.2
20260504192530 14 258 4.8 16.1 0.00 0.00 0.00 34 1015.6
20260504191530 15 281 4.8 19.3 0.00 0.00 0.00 27 1015.0
20260504190529 15 258 4.8 14.5 0.00 0.00 0.00 28 1014.9
20260504185530 15 91 4.8 14.5 0.00 0.00 0.00 24 1014.9
20260504184529 16 30 3.2 9.7 0.00 0.00 0.00 28 1014.8
20260504184505 15 221 9.7 24.1 0.00 0.00 0.00 29 1014.8
20260504182530 15 94 6.4 22.5 0.00 0.00 0.00 27 1014.8
20260504181532 15 119 3.2 12.9 0.00 0.00 0.00 26 1015.2
20260504180530 15 192 3.2 4.8 0.00 0.00 0.00 28 1015.7
20260504175529 15 139 4.8 11.3 0.00 0.00 0.00 28 1015.6
20260504174528 15 95 4.8 19.3 0.00 0.00 0.00 27 1015.7
20260504173528 15 108 4.8 14.5 0.00 0.00 0.00 30 1015.8
20260504172527 15 137 4.8 16.1 0.00 0.00 0.00 31 1016.2
20260504171528 15 103 6.4 19.3 0.00 0.00 0.00 33 1016.1
20260504170530 15 282 4.8 16.1 0.00 0.00 0.00 35 1016.2